Weather History for Heidelberg, Germany

Change the Weather History Date:

Wednesday, November 14, 2012

  Actual Average Record
Temperature  
Mean Temperature 32 °F -  
Max Temperature 40 °F - - ()
Min Temperature 24 °F - - ()
Degree Days  
Heating Degree Days 33    
Moisture  
Dew Point 32 °F    
Average Humidity 81    
Maximum Humidity 81    
Minimum Humidity 81    
Precipitation  
Precipitation 0.00 in - - ()
Sea Level Pressure  
Sea Level Pressure 30.39 in    
Wind  
Wind Speed 3 mph ()    
Max Wind Speed 12 mph    
Max Gust Speed 17 mph    
Visibility 5.3 miles    
Events      
T = Trace of Precipitation, MM = Missing Value Source: Averaged Metar Reports

Daily Weather History Graph

Daily Weather History Graph

Search for Another Location

Airport:

Trip Planner

Search our weather history database for the weather conditions in past years. The results will help you decide how hot, cold, wet, or windy it might be!

Date:

Astronomy

Nov. 14, 2012 Rise Set
Actual Time 7:35 AM CET 4:44 PM CET
Civil Twilight 7:00 AM CET 5:19 PM CET
Nautical Twilight 6:21 AM CET 5:57 PM CET
Astronomical Twilight 5:43 AM CET 6:35 PM CET
Moon 8:09 AM CET (11/14) 5:11 PM CET (11/14)
Length of Visible Light 10h 19m
Length of Day
9h 09m
New Moon, 0% of the Moon is Illuminated
Nov 14
New Moon
Nov 20
First Quarter
Nov 28
Full
Dec 6
Last Quarter
Dec 13
New

Hourly Weather History & Observations

Time (CET) Temp. Windchill Dew Point Humidity Pressure Visibility Wind Dir Wind Speed Gust Speed Precip Events Conditions
12:07 AM - - - N/A% 30.43 in 3.1 mi South 2.3 mph - N/A   Clear
12:09 AM - - - N/A% 30.43 in - SSW 2.3 mph - N/A   Clear
12:10 AM - - - N/A% 30.43 in 3.1 mi SW 2.3 mph - N/A   Clear
12:11 AM - - - N/A% 30.43 in - SSW 1.2 mph - N/A   Clear
12:38 AM - - - N/A% 30.43 in 3.1 mi West 3.5 mph - N/A   Clear
12:48 AM 26.6 °F - - N/A% 30.45 in 3.7 mi Variable 2.3 mph - N/A   Clear
12:55 AM 26.8 °F - - N/A% 30.45 in 3.7 mi WNW 2.3 mph - N/A   Clear
1:55 AM 24.4 °F - - N/A% 30.45 in 3.7 mi WSW 1.2 mph - N/A   Clear
2:55 AM 26.2 °F - - N/A% 30.45 in 5.6 mi Variable 1.2 mph - N/A   Clear
3:48 AM 24.8 °F - - N/A% 30.45 in 3.7 mi Variable 1.2 mph - N/A   Partly Cloudy
3:55 AM 25.0 °F - - N/A% 30.45 in 3.7 mi WNW 2.3 mph - N/A   Scattered Clouds
3:56 AM - - - N/A% 30.43 in 3.7 mi NW 1.2 mph - N/A   Mostly Cloudy
4:04 AM 24.8 °F - - N/A% 30.45 in 3.7 mi NW 2.3 mph - N/A   Mostly Cloudy
4:55 AM 26.2 °F - - N/A% 30.44 in 3.7 mi Variable 1.2 mph - N/A   Mostly Cloudy
4:56 AM - - - N/A% 30.41 in 3.7 mi NW 1.2 mph - N/A   Scattered Clouds
5:04 AM 26.6 °F - - N/A% 30.44 in 5.0 mi Variable 1.2 mph - N/A   Scattered Clouds
5:20 AM - - - N/A% 30.41 in 5.0 mi WNW 2.3 mph - N/A   Mostly Cloudy
5:29 AM - - - N/A% 30.41 in 5.0 mi NNW 2.3 mph - N/A   Mostly Cloudy
5:34 AM 28.4 °F - - N/A% 30.43 in 5.6 mi Variable 1.2 mph - N/A   Mostly Cloudy
5:55 AM 30.9 °F 26.2 °F - N/A% 30.43 in 6.2 mi Variable 4.6 mph - N/A   Mostly Cloudy
6:55 AM 32.0 °F 28.7 °F - N/A% 30.42 in 6.2 mi East 3.5 mph - N/A   Overcast
7:55 AM 33.8 °F - - N/A% 30.43 in 6.2 mi Variable 2.3 mph - N/A   Overcast
8:55 AM 34.7 °F 28.8 °F - N/A% 30.42 in 6.2 mi Variable 6.9 mph - N/A   Overcast
9:55 AM 35.1 °F 32.2 °F - N/A% 30.41 in 6.2 mi Variable 3.5 mph - N/A   Overcast
10:55 AM 36.1 °F 33.5 °F - N/A% 30.41 in 6.2 mi Variable 3.5 mph - N/A   Overcast
11:20 AM 37.4 °F 34.9 °F 32.0 °F 81% 30.38 in 6.2 mi East 3.5 mph - N/A   Overcast
11:34 AM 37.4 °F 33.8 °F - N/A% 30.39 in 6.2 mi Variable 4.6 mph - N/A   Overcast
11:55 AM 37.0 °F 31.6 °F - N/A% 30.38 in 6.2 mi East 6.9 mph - N/A   Overcast
12:04 PM 37.4 °F 30.8 °F - N/A% 30.38 in 6.2 mi East 9.2 mph - N/A   Overcast
12:55 PM 38.3 °F 33.9 °F - N/A% 30.36 in 6.2 mi ENE 5.8 mph 16.1 mph N/A   Overcast
1:55 PM 39.2 °F 33.6 °F - N/A% 30.34 in 6.2 mi East 8.1 mph 17.3 mph N/A   Overcast
2:55 PM 39.9 °F 36.7 °F - N/A% 30.33 in 6.2 mi East 4.6 mph - N/A   Overcast
3:55 PM 39.0 °F 33.4 °F - N/A% 30.32 in 6.2 mi ENE 8.1 mph - N/A   Mostly Cloudy
4:55 PM 39.9 °F 35.1 °F - N/A% 30.32 in 6.2 mi East 6.9 mph - N/A   Overcast
5:55 PM 40.8 °F 34.1 °F - N/A% 30.31 in 6.2 mi East 11.5 mph - N/A   Overcast
6:55 PM 38.7 °F 36.3 °F - N/A% 30.31 in 6.2 mi SE 3.5 mph - N/A   Overcast
7:55 PM 39.2 °F 33.6 °F - N/A% 30.30 in 6.2 mi SE 8.1 mph - N/A   Mostly Cloudy
8:55 PM 39.6 °F 34.7 °F - N/A% 30.29 in 6.2 mi East 6.9 mph - N/A   Overcast
9:55 PM 37.6 °F 33.1 °F - N/A% 30.29 in 6.2 mi East 5.8 mph - N/A   Overcast
10:55 PM 27.3 °F 19.9 °F - N/A% 30.29 in 6.2 mi East 6.9 mph - N/A   Overcast
11:55 PM 27.1 °F 18.9 °F - N/A% 30.27 in 6.2 mi ESE 8.1 mph 12.7 mph N/A   Overcast